[[{"header":{"parameterUnit":"m.s-1","parameterCategory":1,"la1":30.2992,"la2":30.254,"lo1":-89.0895,"lo2":-89.0443,"dy":0.0025,"dx":0.0025,"nx":19,"ny":19,"refTime":"2026-05-02T03:00:00:Z","depth":0,"parameterNumber":2,"parameterNumberName":"U-component_of_WINDS"},"data":[0,0,0,-1.4992,-1.4996,-1.5175,-1.5176,-1.5402,-1.5404,0,0,0,0,0,0,0,0,0,0,0,-1.4936,-1.4938,-1.4992,-1.4996,-1.5175,-1.5176,-1.5402,-1.5404,0,0,0,0,0,0,0,0,0,0,0,-1.4936,-1.4937,-1.4939,-1.4997,-1.5175,-1.5176,-1.5401,-1.5268,0,0,0,0,0,0,0,0,0,0,-1.5094,-1.504,-1.4937,-1.4939,-1.4998,-1.5175,-1.5176,-1.5261,-1.5276,-1.532,0,-1.5356,0,-1.5384,-1.5419,-1.542,0,0,0,-1.4999,-1.5028,-1.5078,-1.4939,-1.5,-1.5174,-1.5095,-1.527,-1.5286,-1.5339,-1.536,-1.5368,-1.5387,-1.542,-1.5422,-1.5661,-1.5662,0,0,-1.4989,-1.4968,-1.5066,-1.5089,-1.5059,-1.5089,-1.5101,-1.528,-1.5301,-1.536,-1.5374,-1.5391,-1.5422,-1.5424,-1.566,-1.5661,0,0,0,-1.4959,-1.4961,-1.5007,-1.5079,-1.5111,-1.5095,-1.5108,-1.5293,-1.531,-1.5376,-1.5394,-1.5423,-1.5426,-1.5659,-1.5661,-1.569,0,0,0,-1.4953,-1.4943,-1.5002,-1.4991,-1.5108,-1.5204,-1.5117,-1.5298,-1.5319,-1.5393,-1.5423,-1.5428,-1.5658,-1.566,-1.5687,-1.5709,0,0,0,-1.4926,-1.494,-1.4964,-1.4989,-1.5065,-1.5202,-1.5229,-1.5303,-1.5329,-1.542,-1.5429,-1.5657,-1.566,-1.5684,-1.5704,-1.5768,0,0,0,-1.4891,-1.4988,-1.4964,-1.508,-1.5064,-1.5217,-1.5228,-1.5344,-1.5425,-1.5424,-1.5658,-1.566,-1.5683,-1.5702,-1.5764,-1.5819,-1.5838,0,0,-1.5002,-1.5001,-1.507,-1.5054,-1.5207,-1.5192,-1.5349,-1.5444,-1.5473,-1.5597,-1.5603,-1.5688,-1.5704,-1.5767,-1.5951,-1.5966,0,0,0,-1.5099,-1.5149,-1.5193,-1.5269,-1.5342,-1.5408,-1.5481,-1.5516,-1.5622,-1.5532,-1.5727,-1.5737,-1.5775,-1.5802,-1.5815,-1.585,-1.5671,-1.5671,-1.5671,-1.5228,-1.5257,-1.5375,-1.5427,-1.5499,-1.5572,-1.5635,-1.5695,-1.5705,-1.575,-1.5789,-1.5896,-1.5927,-1.5937,-1.5973,-1.5817,-1.5817,-1.5817,-1.5817,-1.5396,-1.5473,-1.5481,-1.5599,-1.563,-1.5729,-1.5803,-1.5806,-1.5905,-1.587,-1.5905,-1.5867,-1.5953,-1.5987,-1.5819,-1.5819,-1.5819,-1.5818,-1.5818,-1.5487,-1.5529,-1.5568,-1.568,-1.5762,-1.581,-1.5904,-1.5929,-1.5953,-1.5987,-1.6032,-1.6031,-1.6037,-1.6005,-1.6006,-1.6006,-1.6006,-1.6007,-1.6007,-1.5568,-1.5611,-1.5686,-1.5771,-1.5822,-1.5893,-1.5966,-1.6018,-1.6082,-1.6093,-1.6093,-1.61,-1.5954,-1.5919,-1.6013,-1.6012,-1.6011,-1.6011,-1.601,-1.5734,-1.57,-1.5817,-1.5868,-1.5969,-1.6051,-1.6079,-1.6182,-1.6228,-1.6274,-1.6272,-1.6159,-1.6161,-1.6151,-1.6122,-1.6263,-1.6263,-1.6263,-1.6263,-1.5814,-1.5815,-1.5941,-1.6021,-1.6102,-1.6139,-1.6272,-1.6329,-1.6383,-1.6414,-1.6396,-1.6359,-1.6347,-1.6356,-1.6341,-1.6315,-1.6502,-1.6502,-1.6503,-1.592,-1.593,-1.6038,-1.6088,-1.6169,-1.6238,-1.6365,-1.6458,-1.6512,-1.6513,-1.6439,-1.6429,-1.6369,-1.6348,-1.6352,-1.6328,-1.6281,0,0]},{"header":{"parameterUnit":"m.s-1","parameterCategory":1,"la1":30.2992,"la2":30.254,"lo1":-89.0895,"lo2":-89.0443,"dy":0.0025,"dx":0.0025,"nx":19,"ny":19,"refTime":"2026-05-02T03:00:00:Z","depth":0,"parameterNumber":3,"parameterNumberName":"V-component_of_WINDS"},"data":[0,0,0,-8.3752,-8.3757,-8.397,-8.397,-8.4255,-8.4257,0,0,0,0,0,0,0,0,0,0,0,-8.3701,-8.3703,-8.3752,-8.3758,-8.397,-8.397,-8.4254,-8.4257,0,0,0,0,0,0,0,0,0,0,0,-8.37,-8.3703,-8.3706,-8.3758,-8.3969,-8.397,-8.4253,-8.4088,0,0,0,0,0,0,0,0,0,0,-8.3879,-8.3844,-8.3702,-8.3706,-8.376,-8.3969,-8.3971,-8.408,-8.4098,-8.4165,0,-8.4231,0,-8.4249,-8.4278,-8.4279,0,0,0,-8.3748,-8.3828,-8.3876,-8.3706,-8.3762,-8.3969,-8.3871,-8.409,-8.4111,-8.419,-8.4235,-8.4245,-8.4254,-8.4279,-8.4281,-8.4709,-8.4712,0,0,-8.3736,-8.3744,-8.3861,-8.389,-8.3862,-8.3864,-8.3878,-8.4102,-8.415,-8.4236,-8.4251,-8.4259,-8.4281,-8.4284,-8.4707,-8.471,0,0,0,-8.3709,-8.3736,-8.3778,-8.3879,-8.3916,-8.3871,-8.3886,-8.414,-8.4153,-8.4254,-8.4262,-8.4283,-8.4287,-8.4704,-8.4708,-8.484,0,0,0,-8.3702,-8.3721,-8.3773,-8.378,-8.3913,-8.4032,-8.392,-8.4138,-8.4163,-8.4261,-8.4283,-8.429,-8.4702,-8.4706,-8.4831,-8.4901,0,0,0,-8.3683,-8.3718,-8.3753,-8.378,-8.3872,-8.4028,-8.4054,-8.4143,-8.4168,-8.4279,-8.4291,-8.47,-8.4706,-8.4822,-8.4887,-8.5018,0,0,0,-8.3664,-8.3864,-8.3756,-8.3982,-8.3871,-8.4109,-8.4052,-8.4228,-8.4338,-8.4285,-8.4702,-8.4708,-8.482,-8.4878,-8.5009,-8.5131,-8.5182,0,0,-8.3921,-8.3896,-8.4028,-8.3937,-8.4198,-8.4076,-8.4354,-8.4445,-8.4446,-8.462,-8.4631,-8.4834,-8.4886,-8.5016,-8.5464,-8.5505,0,0,0,-8.4112,-8.4208,-8.4275,-8.4383,-8.446,-8.4532,-8.458,-8.4614,-8.4763,-8.4539,-8.4915,-8.4946,-8.5022,-8.5079,-8.5114,-8.5179,-8.4735,-8.4734,-8.4733,-8.4486,-8.4481,-8.47,-8.472,-8.4825,-8.4875,-8.4958,-8.5012,-8.4971,-8.506,-8.5113,-8.5386,-8.5454,-8.548,-8.5548,-8.5175,-8.5176,-8.5176,-8.5176,-8.4863,-8.4998,-8.4944,-8.5138,-8.5129,-8.5289,-8.5344,-8.5311,-8.5458,-8.5345,-8.5412,-8.5291,-8.5525,-8.5584,-8.5186,-8.5185,-8.5183,-8.5182,-8.5182,-8.5109,-8.5173,-8.5213,-8.5371,-8.5491,-8.5502,-8.5648,-8.5633,-8.5619,-8.5685,-8.574,-8.5737,-8.5734,-8.5712,-8.5713,-8.5714,-8.5715,-8.5716,-8.5716,-8.5348,-8.539,-8.5517,-8.5618,-8.5686,-8.5774,-8.5826,-8.5891,-8.596,-8.5937,-8.5938,-8.5889,-8.555,-8.5465,-8.5731,-8.5728,-8.5726,-8.5725,-8.5724,-8.5735,-8.5646,-8.5842,-8.5911,-8.6028,-8.615,-8.613,-8.6265,-8.6317,-8.6389,-8.6326,-8.6078,-8.6049,-8.6021,-8.5952,-8.6327,-8.6327,-8.6327,-8.6327,-8.5944,-8.5929,-8.6127,-8.6238,-8.6345,-8.6348,-8.6567,-8.661,-8.6638,-8.6669,-8.6612,-8.6518,-8.649,-8.6478,-8.6441,-8.6375,-8.685,-8.6851,-8.6851,-8.6182,-8.6177,-8.6368,-8.64,-8.6491,-8.6568,-8.6774,-8.6902,-8.6915,-8.6872,-8.6694,-8.6672,-8.6519,-8.647,-8.6423,-8.6365,-8.6245,0,0]}]]